Regional Weather Roundup
Issued by NWS

Home | Current Version | Previous Version | Graphics & Text | Print | Product List | Glossary On
Versions: 1 2 3 4 5 6 7 8 9 10 11 12 13 14 15 16 17 18 19 20 21 22 23 24 25 26 27 28 29 30 31 32 33 34 35 36 37 38 39 40 41 42 43 44 45 46 47 48 49 50
412
ASUS43 KMKX 262111
RWRWI

WISCONSIN REGIONAL WEATHER ROUNDUP
NATIONAL WEATHER SERVICE MILWAUKEE/SULLIVAN WI
400 PM CDT WED APR 26 2017

NOTE: "FAIR" INDICATES FEW OR NO CLOUDS BELOW 12,000 FEET WITH NO
SIGNIFICANT WEATHER AND/OR OBSTRUCTIONS TO VISIBILITY.

WIZ001-002-006>008-014>016-023>028-262200-
NORTHWEST WISCONSIN

CITY           SKY/WX    TMP DP  RH WIND       PRES   REMARKS
SUPERIOR ARPT  LGT RAIN  34  33  96 NE7       29.58F WCI  28
ASHLAND        LGT SNOW  33  32  96 NE18G25   29.54S FOG     WCI  22
HAYWARD        CLOUDY    35  32  88 N8        29.51R FOG     WCI  29
SIREN          LGT RAIN  36  33  90 NE12      29.55R WCI  28
CUMBERLAND     CLOUDY    36  32  87 N9G17     29.51R WCI  29
RICE LAKE      CLOUDY    38  35  88 N12       29.51S WCI  30
CHETEK         CLOUDY    38  37  93 NW6       29.49R WCI  34
LADYSMITH      CLOUDY    38  36  91 N10       29.48R WCI  31
EAU CLAIRE     CLOUDY    41  37  86 NW10      29.48R
MENOMONIE      CLOUDY    41  37  84 NW12      29.49S
NEW RICHMOND   CLOUDY    38  35  89 N10       29.52S WCI  32
OSCEOLA        CLOUDY    39  34  82 N8        29.57R WCI  34
$$

WIZ003>005-009-010-017-018-262200-
NORTH CENTRAL WISCONSIN

CITY           SKY/WX    TMP DP  RH WIND       PRES   REMARKS
MANITOWISH WTR CLOUDY    34  34 100 N6        29.43S FOG     WCI  29
ARBOR VITAE    CLOUDY    39  38  94 N10       29.40F FOG     WCI  32
WOODRUFF       CLOUDY    39  38  94 N10       29.40F FOG     WCI  32
RHINELANDER    CLOUDY    43  43 100 NW8       29.39F
EAGLE RIVER    CLOUDY    39  38  98 N8        29.39F WCI  33
LAND O LAKES   DRIZZLE   37  37  99 N9        29.43S WCI  30
PHILLIPS       CLOUDY    36  36 100 N9        29.42F FOG     WCI  29
TOMAHAWK       CLOUDY    40  39  96 N7        29.41S FOG
MEDFORD        CLOUDY    43  42  95 NW8       29.41R
MERRILL        CLOUDY    48  48 100 NW6       29.39S FOG
$$

WIZ029-030-035-036-043>047-262200-
CENTRAL WISCONSIN

CITY           SKY/WX    TMP DP  RH WIND       PRES   REMARKS
WAUSAU         CLOUDY    54  51  90 W12       29.38R
MOSINEE        CLOUDY    54  52  94 SW10      29.40R
MARSHFIELD     CLOUDY    45  42  89 W12       29.42R
STEVENS POINT  CLOUDY    57  55  91 W9        29.40R
WAUPACA        CLOUDY    68  58  70 SW16      29.39S
WAUTOMA        NOT AVBL
WISC RAPIDS    CLOUDY    52  50  93 NW9       29.43R
CAMP DOUGLAS   CLOUDY    50  48  93 W14       29.44R FOG
$$

WIZ011>013-019>022-031-037>040-048>050-262200-
NORTHEAST WISCONSIN

CITY           SKY/WX    TMP DP  RH WIND       PRES   REMARKS
ANTIGO         CLOUDY    56  56  99 SW7       29.37F
SHAWANO        CLOUDY    64  59  82 S6        29.37F
OCONTO         CLOUDY    63  57  82 SW6       29.37F
STURGEON BAY   PTSUNNY   64  59  83 SW15G21   29.39F
GREEN BAY      CLOUDY    65  62  90 S13       29.39F
MANITOWOC      CLOUDY    68  58  70 SW16G23   29.40F
APPLETON       CLOUDY    64  55  72 SW16      29.38F
CLINTONVILLE   DRIZZLE   63  59  88 SW7       29.37F
OSHKOSH        CLOUDY    66  58  75 SW16G22   29.38F
$$

WIZ032>034-041-042-053>061-262200-
SOUTHWEST WISCONSIN

CITY           SKY/WX    TMP DP  RH WIND       PRES   REMARKS
LA CROSSE      CLOUDY    48  42  80 W13       29.47F
SPARTA         CLOUDY    45  44  99 W8        29.47S
VIROQUA        CLOUDY    46  46 100 W13       29.46S
BOSCOBEL       CLOUDY    52  49  89 W8        29.48R
PRAIRIE DU CHI CLOUDY    49  44  82 W8        29.49R
PLATTEVILLE    CLOUDY    52  52 100 SW13      29.50R
$$

WIZ056-057-062-063-064-067-068-262200-
SOUTH CENTRAL WISCONSIN

CITY           SKY/WX    TMP DP  RH WIND       PRES   REMARKS
REEDSBURG      CLOUDY    60  56  87 SW10G16   29.41S
BARABOO/DELLS  CLOUDY    60  54  79 SW13      29.41S
LONE ROCK      CLOUDY    57  51  80 W13       29.45R
MINERAL POINT  CLOUDY    54  54 100 SW12      29.48R
MADISON        CLOUDY    62  54  74 SW8       29.44R
MIDDLETON      CLOUDY    62  54  77 SW14      29.46R
WATERTOWN      CLOUDY    67  57  71 SW17      29.44R
MONROE         CLOUDY    55  52  88 SW14      29.48R
JANESVILLE     CLOUDY    64  55  72 SW18G26   29.48R
$$

WIZ051-052-058>065-066-070>072-262200-
SOUTHEAST WISCONSIN

CITY           SKY/WX    TMP DP  RH WIND       PRES   REMARKS
MILWAUKEE      PTSUNNY   72  59  63 SW16      29.45F
WAUKESHA       PTSUNNY   66  55  68 SW14G23   29.46R
MILWAUKEE/TIMM PTSUNNY   70  54  56 S16G24    29.45S
RACINE         CLOUDY    71  56  58 SW15      29.47S
KENOSHA        CLOUDY    70  57  63 SW15G22   29.46R
FOND DU LAC    CLOUDY    66  57  72 SW16G22   29.41S
SHEBOYGAN      MOSUNNY   69  62  78 S17       29.42S HAZE
WEST BEND      CLOUDY    66  59  77 S12       29.44R
JUNEAU         CLOUDY    65  57  74 SW18      29.44R
$$

LSZ147-162-262200-
LAKE SUPERIOR

STATION/POSITION TIME  TEMP    WIND        PRES    WAVE
                       AIR SEA DIR/SP/G            HT/PER
                 (UTC) (F)     (DEG/KT/KT) (MB)    (FT/S)
DEVILS ISLAND    2100   32      30/ 25/ 28 1001.4F
PORT WING        2040   34      30/ 24/ 27 1001.7F
SAXON HARBOR     2040   35      40/ 23/ 27  999.7F
$$

LMZ867-665-643>646-262200-
LAKE MICHIGAN

STATION/POSITION TIME  TEMP    WIND        PRES    WAVE
                       AIR SEA DIR/SP/G            HT/PER
                 (UTC) (F)     (DEG/KT/KT) (MB)    (FT/S)
CHAMBERS ISLAND  2040   57     170/  5/ 11  994.9S
N MID LAKE BUOY  2050   42 38  200/  6/  6  996.8F   1/ 5
NORTHPORT PIER   2040   59     210/  3/ 12  995.3F
KEWAUNEE LAKESHO 2048   48     160/ 10/ 11  995.8R
SHEBOYGAN LAKESH 2100   53     170/ 19/ 20  996.1R
PORT WASHINGTON  2040   63     190/  7/ 10  997.6F
MILWAUKEE LAKESH 2050   69     210/ 14/ 16   N/A
S MID LAKE BUOY  2050   51 42  240/ 10/ 10  998.2F   1/ 4
KENOSHA   LAKESH 2100   72     230/  8/ 17  998.0
$$

TC  - TEMPERATURE IN CELSIUS
VSB - VISIBILITY IN STATUTE MILES
WCI - WIND CHILL INDEX
HX  - HEAT INDEX





USA.gov is the U.S. government's official web portal to all federal, state and local government web resources and services.